Overview Statistics Trail Chart Weather Telemetry Raw packets
 

This is the latest recevied weather packets stored in our database for station/object G0TQM-11. If no packets are shown the sender has not sent any weather packets the latest 10 day(s).

<< 21 22 23 24 25 26 27 >>
Time Temp. Humidity Pressure Rain* Wind** Luminosity Snow
1788012103 22.78° C 58% 998.4 hPa - - - -
1788010904 22.78° C 57% 998.5 hPa - - - -
1788009703 22.78° C 57% 998.7 hPa - - - -
1788008502 23.89° C 57% 998.7 hPa - - - -
1788007301 24.44° C 57% 998.7 hPa - - - -
1788006101 23.89° C 55% 999 hPa - - - -
1788004902 22.78° C 59% 999.1 hPa - - - -
1788003702 24.44° C 57% 999.2 hPa - - - -
1788002501 25.56° C 57% 999.2 hPa - - - -
1788001301 24.44° C 60% 999.4 hPa - - - -
1788000100 22.78° C 61% 999.7 hPa - - - -
1787998900 22.78° C 62% 999.7 hPa - - - -
1787997700 22.78° C 59% 999.9 hPa - - - -
1787996500 22.78° C 58% 999.9 hPa - - - -
1787995300 23.33° C 59% 999.8 hPa - - - -
1787994100 22.22° C 62% 999.9 hPa - - - -
1787992899 22.22° C 62% 999.9 hPa - - - -
1787991699 21.67° C 61% 1000.1 hPa - - - -
1787990499 22.22° C 62% 1000.2 hPa - - - -
1787989299 21.67° C 62% 1000.2 hPa - - - -
1787988105 21.67° C 63% 1000.2 hPa - - - -
1787986905 21.11° C 63% 1000.3 hPa - - - -
1787985705 21.11° C 65% 1000.4 hPa - - - -
1787984505 21.11° C 65% 1000.4 hPa - - - -
1787983305 20.56° C 61% 1000.4 hPa - - - -

* Rain since midnight (hover to see other rain measurements)
** Current wind speed in m/s (hover to see current wind gust speed)